Siemreap, Cambodia

8:09 AM +07 on March 27, 2017 (GMT +0700)
Siem Reap

Weather History for VDSR - August, 2013

Change the Weather History Date:

Wednesday, August 28, 2013

  Actual Average Record
Temperature  
Mean Temperature 84 °F -  
Max Temperature 89 °F - - ()
Min Temperature 78 °F - - ()
Cooling Degree Days 18    
Growing Degree Days 34 (Base 50)    
Moisture  
Dew Point 75 °F    
Average Humidity 80    
Maximum Humidity 94    
Minimum Humidity 62    
Precipitation  
Precipitation 0.00 in - - ()
Sea Level Pressure  
Sea Level Pressure 29.74 in    
Wind  
Wind Speed 5 mph ()    
Max Wind Speed 18 mph    
Max Gust Speed -    
Visibility 5.8 miles    
Events Rain , Thunderstorm    
T = Trace of Precipitation, MM = Missing Value Source: Averaged Metar Reports

Daily Weather History Graph

Daily Weather History Graph

Search for Another Location

Airport or City:

Trip Planner

Search our weather history database for the weather conditions in past years. The results will help you decide how hot, cold, wet, or windy it might be!

Date:

Astronomy

Aug. 28, 2013 Rise Set
Actual Time 5:53 AM +07 6:18 PM +07
Civil Twilight 5:31 AM +07 6:40 PM +07
Nautical Twilight 5:06 AM +07 7:05 PM +07
Astronomical Twilight 4:40 AM +07 7:30 PM +07
Moon 11:47 PM +07 (8/28) 12:01 PM +07 (8/28)
Length of Visible Light 13h 08m
Length of Day
12h 25m
Waning Gibbous, 52% of the Moon is Illuminated
Aug 28
Waning Gibbous
Aug 28
Last Quarter
Sep 5
New
Sep 13
First Quarter
Sep 19
Full

Hourly Weather History & Observations

Time (+07) Temp. Heat Index Dew Point Humidity Pressure Visibility Wind Dir Wind Speed Gust Speed Precip Events Conditions
12:00 AM 78.8 °F - 75.2 °F 89% 29.74 in 5.6 mi South 3.5 mph - N/A   Scattered Clouds
12:30 AM 78.8 °F - 75.2 °F 89% 29.74 in 5.6 mi SSW 2.3 mph - N/A   Scattered Clouds
1:00 AM 78.8 °F - 75.2 °F 89% 29.71 in 5.6 mi Calm Calm - N/A   Scattered Clouds
7:00 AM - - - %  in - Calm Calm - -  
7:00 AM 80.6 °F 87.1 °F 77.0 °F 89% 29.74 in 5.6 mi West 5.8 mph - N/A   Scattered Clouds
7:30 AM 80.6 °F 86.2 °F 75.2 °F 84% 29.74 in 5.6 mi West 5.8 mph - N/A   Scattered Clouds
8:00 AM 82.4 °F 89.5 °F 75.2 °F 79% 29.77 in 6.2 mi West 3.5 mph - N/A   Scattered Clouds
8:30 AM 82.4 °F 88.2 °F 73.4 °F 74% 29.77 in 6.2 mi WNW 11.5 mph - N/A   Scattered Clouds
9:00 AM 82.4 °F 88.2 °F 73.4 °F 74% 29.77 in 6.2 mi WNW 9.2 mph - N/A   Scattered Clouds
9:30 AM 84.2 °F 90.9 °F 73.4 °F 70% 29.77 in 6.2 mi WNW 9.2 mph - N/A   Scattered Clouds
10:00 AM 84.2 °F 92.3 °F 75.2 °F 74% 29.77 in 6.2 mi WNW 9.2 mph - N/A   Scattered Clouds
10:30 AM 84.2 °F 92.3 °F 75.2 °F 74% 29.77 in 6.2 mi WSW 9.2 mph - N/A   Scattered Clouds
11:00 AM 84.2 °F 92.3 °F 75.2 °F 74% 29.77 in 6.2 mi WSW 5.8 mph - N/A   Scattered Clouds
11:30 AM 84.2 °F 92.3 °F 75.2 °F 74% 29.77 in 6.2 mi WNW 9.2 mph - N/A   Scattered Clouds
12:00 PM 86.0 °F 95.1 °F 75.2 °F 70% 29.77 in 6.2 mi West 8.1 mph - N/A   Scattered Clouds
12:30 PM 86.0 °F 95.1 °F 75.2 °F 70% 29.74 in 6.2 mi WSW 8.1 mph - N/A   Scattered Clouds
1:00 PM 86.0 °F 95.1 °F 75.2 °F 70% 29.71 in 6.2 mi WNW 8.1 mph - N/A   Scattered Clouds
1:30 PM 86.0 °F 95.1 °F 75.2 °F 70% 29.71 in 6.2 mi WNW 8.1 mph - N/A   Scattered Clouds
2:00 PM 89.6 °F 99.8 °F 75.2 °F 62% 29.68 in 6.2 mi WSW 11.5 mph - N/A   Scattered Clouds
2:30 PM 89.6 °F 99.8 °F 75.2 °F 62% 29.68 in 6.2 mi WSW 9.2 mph - N/A   Scattered Clouds
3:00 PM 89.6 °F 99.8 °F 75.2 °F 62% 29.68 in 6.2 mi WSW 10.4 mph - N/A   Scattered Clouds
3:30 PM 89.6 °F 99.8 °F 75.2 °F 62% 29.65 in 6.2 mi West 10.4 mph - N/A   Scattered Clouds
4:00 PM 89.6 °F 99.8 °F 75.2 °F 62% 29.65 in 6.2 mi West 8.1 mph - N/A   Scattered Clouds
4:30 PM 78.8 °F - 77.0 °F 94% 29.68 in 3.1 mi West 18.4 mph - N/A Rain Rain
5:00 PM 78.8 °F - 75.2 °F 89% 29.71 in 5.0 mi WNW 6.9 mph - N/A Rain , Thunderstorm Light Thunderstorms and Rain
5:30 PM 78.8 °F - 73.4 °F 83% 29.71 in 5.0 mi North 6.9 mph - N/A Rain Light Rain
6:00 PM 78.8 °F - 73.4 °F 83% 29.71 in 5.6 mi North 6.9 mph - N/A Rain Light Rain
6:30 PM 78.8 °F - 73.4 °F 83% 29.71 in 5.6 mi Variable 2.3 mph - N/A Rain Light Rain
7:00 PM 78.8 °F - 73.4 °F 83% 29.71 in 5.6 mi Variable 3.5 mph - N/A   Mostly Cloudy
7:30 PM 78.8 °F - 75.2 °F 89% 29.71 in 5.6 mi Variable 3.5 mph - N/A   Mostly Cloudy
8:00 PM 78.8 °F - 75.2 °F 89% 29.74 in 5.6 mi Calm Calm - N/A   Mostly Cloudy
8:30 PM 78.8 °F - 75.2 °F 89% 29.77 in 5.6 mi Calm Calm - N/A   Mostly Cloudy
9:00 PM 78.8 °F - 75.2 °F 89% 29.77 in 5.6 mi Calm Calm - N/A   Mostly Cloudy
9:30 PM 78.8 °F - 75.2 °F 89% 29.77 in 5.6 mi Calm Calm - N/A   Mostly Cloudy
10:00 PM 78.8 °F - 75.2 °F 89% 29.77 in 5.6 mi Calm Calm - N/A   Mostly Cloudy
10:30 PM 78.8 °F - 75.2 °F 89% 29.80 in 5.6 mi Calm Calm - N/A   Mostly Cloudy
11:00 PM 78.8 °F - 77.0 °F 94% 29.77 in 5.6 mi Calm Calm - N/A   Mostly Cloudy
11:30 PM 78.8 °F - 77.0 °F 94% 29.77 in 5.6 mi Calm Calm - N/A   Mostly Cloudy